******** Week 375 almanac for PRN-01 ******** ID: 01 Health: 000 Eccentricity: 0.1787185669E-002 Time of Applicability(s): 589824.0000 Orbital Inclination(rad): 0.9571225189 Rate of Right Ascen(r/s): -0.7920329914E-008 SQRT(A) (m 1/2): 5153.559570 Right Ascen at Week(rad): 0.1252940602E+001 Argument of Perigee(rad): 0.206094214 Mean Anom(rad): -0.2604179562E+000 Af0(s): 0.2431869507E-003 Af1(s/s): -0.1091393642E-010 week: 375 ******** Week 375 almanac for PRN-02 ******** ID: 02 Health: 000 Eccentricity: 0.1684999466E-001 Time of Applicability(s): 589824.0000 Orbital Inclination(rad): 0.9621978382 Rate of Right Ascen(r/s): -0.7840326581E-008 SQRT(A) (m 1/2): 5153.693848 Right Ascen at Week(rad): 0.1090850964E+001 Argument of Perigee(rad): -0.750222591 Mean Anom(rad): 0.1196074706E+001 Af0(s): 0.1230239868E-003 Af1(s/s): 0.7275957614E-011 week: 375 ******** Week 375 almanac for PRN-03 ******** ID: 03 Health: 000 Eccentricity: 0.6945133209E-002 Time of Applicability(s): 589824.0000 Orbital Inclination(rad): 0.9945732217 Rate of Right Ascen(r/s): -0.7726036106E-008 SQRT(A) (m 1/2): 5153.526855 Right Ascen at Week(rad): 0.2244421744E+001 Argument of Perigee(rad): 1.244992065 Mean Anom(rad): -0.2308274443E+001 Af0(s): 0.4110336304E-003 Af1(s/s): -0.1818989404E-010 week: 375 ******** Week 375 almanac for PRN-04 ******** ID: 04 Health: 000 Eccentricity: 0.3763675690E-002 Time of Applicability(s): 589824.0000 Orbital Inclination(rad): 0.9721926817 Rate of Right Ascen(r/s): -0.7943188009E-008 SQRT(A) (m 1/2): 5153.638184 Right Ascen at Week(rad): -0.2970317482E+001 Argument of Perigee(rad): -2.890313043 Mean Anom(rad): 0.6475447478E+000 Af0(s): 0.6103515625E-004 Af1(s/s): 0.0000000000E+000 week: 375 ******** Week 375 almanac for PRN-05 ******** ID: 05 Health: 000 Eccentricity: 0.5614757538E-002 Time of Applicability(s): 589824.0000 Orbital Inclination(rad): 0.9809711265 Rate of Right Ascen(r/s): -0.7851755629E-008 SQRT(A) (m 1/2): 5153.713867 Right Ascen at Week(rad): 0.2183217933E+001 Argument of Perigee(rad): 1.458092182 Mean Anom(rad): 0.1233766966E+001 Af0(s): -0.2346038818E-003 Af1(s/s): 0.0000000000E+000 week: 375 ******** Week 375 almanac for PRN-06 ******** ID: 06 Health: 000 Eccentricity: 0.3689765930E-002 Time of Applicability(s): 589824.0000 Orbital Inclination(rad): 0.9859086271 Rate of Right Ascen(r/s): -0.7646032774E-008 SQRT(A) (m 1/2): 5153.662598 Right Ascen at Week(rad): 0.1206536185E+001 Argument of Perigee(rad): -0.532365860 Mean Anom(rad): -0.1033890692E+001 Af0(s): -0.5874633789E-003 Af1(s/s): 0.7275957614E-011 week: 375 ******** Week 375 almanac for PRN-07 ******** ID: 07 Health: 000 Eccentricity: 0.2090787888E-001 Time of Applicability(s): 589824.0000 Orbital Inclination(rad): 0.9508727456 Rate of Right Ascen(r/s): -0.7840326581E-008 SQRT(A) (m 1/2): 5153.544434 Right Ascen at Week(rad): -0.1962856874E+001 Argument of Perigee(rad): -1.960230831 Mean Anom(rad): -0.1835927454E+001 Af0(s): -0.1974105835E-003 Af1(s/s): -0.3637978807E-011 week: 375 ******** Week 375 almanac for PRN-08 ******** ID: 08 Health: 000 Eccentricity: 0.1163291931E-001 Time of Applicability(s): 589824.0000 Orbital Inclination(rad): 0.9424298592 Rate of Right Ascen(r/s): -0.8251772291E-008 SQRT(A) (m 1/2): 5153.675293 Right Ascen at Week(rad): 0.8204138215E-001 Argument of Perigee(rad): 0.543624665 Mean Anom(rad): 0.9206281572E+000 Af0(s): 0.4177093506E-003 Af1(s/s): -0.7275957614E-011 week: 375 ******** Week 375 almanac for PRN-09 ******** ID: 09 Health: 000 Eccentricity: 0.3546237946E-002 Time of Applicability(s): 589824.0000 Orbital Inclination(rad): 0.9664702143 Rate of Right Ascen(r/s): -0.8011762293E-008 SQRT(A) (m 1/2): 5153.664062 Right Ascen at Week(rad): -0.3035271232E+001 Argument of Perigee(rad): 2.031768040 Mean Anom(rad): 0.1538349038E+001 Af0(s): 0.7343292236E-003 Af1(s/s): -0.7275957614E-011 week: 375 ******** Week 375 almanac for PRN-10 ******** ID: 10 Health: 000 Eccentricity: 0.1104211807E-001 Time of Applicability(s): 589824.0000 Orbital Inclination(rad): 0.9940818685 Rate of Right Ascen(r/s): -0.7726036106E-008 SQRT(A) (m 1/2): 5153.606934 Right Ascen at Week(rad): 0.2241914045E+001 Argument of Perigee(rad): -2.262468863 Mean Anom(rad): 0.2992590913E+001 Af0(s): -0.5750656128E-003 Af1(s/s): 0.3637978807E-011 week: 375 ******** Week 375 almanac for PRN-11 ******** ID: 11 Health: 000 Eccentricity: 0.2377510071E-002 Time of Applicability(s): 589824.0000 Orbital Inclination(rad): 0.9627970494 Rate of Right Ascen(r/s): -0.7863184676E-008 SQRT(A) (m 1/2): 5153.585938 Right Ascen at Week(rad): 0.1222901768E+001 Argument of Perigee(rad): -2.360460500 Mean Anom(rad): 0.2004751103E+000 Af0(s): -0.3004074097E-003 Af1(s/s): 0.1091393642E-010 week: 375 ******** Week 375 almanac for PRN-12 ******** ID: 12 Health: 000 Eccentricity: 0.8727550507E-002 Time of Applicability(s): 589824.0000 Orbital Inclination(rad): 0.9585606259 Rate of Right Ascen(r/s): -0.7954617056E-008 SQRT(A) (m 1/2): 5153.661621 Right Ascen at Week(rad): -0.8440425935E+000 Argument of Perigee(rad): 1.584383442 Mean Anom(rad): -0.2601501837E+001 Af0(s): -0.6065368652E-003 Af1(s/s): 0.0000000000E+000 week: 375 ******** Week 375 almanac for PRN-13 ******** ID: 13 Health: 063 Eccentricity: 0.2286911011E-002 Time of Applicability(s): 589824.0000 Orbital Inclination(rad): 0.9589800738 Rate of Right Ascen(r/s): -0.7920329914E-008 SQRT(A) (m 1/2): 5153.556641 Right Ascen at Week(rad): -0.9525878380E+000 Argument of Perigee(rad): 1.835573170 Mean Anom(rad): -0.2780723673E+001 Af0(s): 0.3738403320E-003 Af1(s/s): 0.2182787284E-010 week: 375 ******** Week 375 almanac for PRN-14 ******** ID: 14 Health: 000 Eccentricity: 0.7267951965E-002 Time of Applicability(s): 589824.0000 Orbital Inclination(rad): 0.9418546164 Rate of Right Ascen(r/s): -0.8080336578E-008 SQRT(A) (m 1/2): 5153.599121 Right Ascen at Week(rad): -0.9004343638E+000 Argument of Perigee(rad): -2.691187656 Mean Anom(rad): -0.2721007404E+001 Af0(s): 0.7486343384E-003 Af1(s/s): 0.0000000000E+000 week: 375 ******** Week 375 almanac for PRN-15 ******** ID: 15 Health: 000 Eccentricity: 0.1690769196E-001 Time of Applicability(s): 589824.0000 Orbital Inclination(rad): 0.9445091222 Rate of Right Ascen(r/s): -0.8228914196E-008 SQRT(A) (m 1/2): 5153.687988 Right Ascen at Week(rad): 0.3101293076E+001 Argument of Perigee(rad): 1.525434538 Mean Anom(rad): -0.8744327153E-001 Af0(s): 0.4215240479E-003 Af1(s/s): 0.3637978807E-011 week: 375 ******** Week 375 almanac for PRN-16 ******** ID: 16 Health: 000 Eccentricity: 0.1499891281E-001 Time of Applicability(s): 589824.0000 Orbital Inclination(rad): 0.9576498248 Rate of Right Ascen(r/s): -0.7966046104E-008 SQRT(A) (m 1/2): 5153.643555 Right Ascen at Week(rad): -0.8272459532E+000 Argument of Perigee(rad): 0.935146297 Mean Anom(rad): 0.1987770205E+001 Af0(s): 0.2851486206E-003 Af1(s/s): 0.7275957614E-011 week: 375 ******** Week 375 almanac for PRN-17 ******** ID: 17 Health: 000 Eccentricity: 0.1258373260E-001 Time of Applicability(s): 589824.0000 Orbital Inclination(rad): 0.9580692727 Rate of Right Ascen(r/s): -0.8034620388E-008 SQRT(A) (m 1/2): 5153.602051 Right Ascen at Week(rad): 0.1883444531E+000 Argument of Perigee(rad): -1.104189032 Mean Anom(rad): 0.9183758720E+000 Af0(s): -0.1592636108E-003 Af1(s/s): -0.7275957614E-011 week: 375 ******** Week 375 almanac for PRN-18 ******** ID: 18 Health: 000 Eccentricity: 0.6139278412E-002 Time of Applicability(s): 589824.0000 Orbital Inclination(rad): 0.9708804091 Rate of Right Ascen(r/s): -0.7783181344E-008 SQRT(A) (m 1/2): 5153.580078 Right Ascen at Week(rad): 0.1199939244E+001 Argument of Perigee(rad): -2.870840176 Mean Anom(rad): -0.1051680900E+001 Af0(s): -0.3232955933E-003 Af1(s/s): 0.7275957614E-011 week: 375 ******** Week 375 almanac for PRN-19 ******** ID: 19 Health: 000 Eccentricity: 0.1167392731E-001 Time of Applicability(s): 589824.0000 Orbital Inclination(rad): 0.9572243848 Rate of Right Ascen(r/s): -0.8023191341E-008 SQRT(A) (m 1/2): 5153.695312 Right Ascen at Week(rad): 0.2321246992E+000 Argument of Perigee(rad): 3.004166176 Mean Anom(rad): 0.2590771836E+001 Af0(s): 0.7019042969E-003 Af1(s/s): 0.0000000000E+000 week: 375 ******** Week 375 almanac for PRN-20 ******** ID: 20 Health: 000 Eccentricity: 0.1970291138E-002 Time of Applicability(s): 589824.0000 Orbital Inclination(rad): 0.9618443035 Rate of Right Ascen(r/s): -0.8080336578E-008 SQRT(A) (m 1/2): 5153.555664 Right Ascen at Week(rad): -0.3030226622E+001 Argument of Perigee(rad): -1.792020250 Mean Anom(rad): -0.2740377282E+001 Af0(s): 0.2031326294E-003 Af1(s/s): 0.1455191523E-010 week: 375 ******** Week 375 almanac for PRN-21 ******** ID: 21 Health: 000 Eccentricity: 0.7939338684E-003 Time of Applicability(s): 589824.0000 Orbital Inclination(rad): 0.9639894798 Rate of Right Ascen(r/s): -0.8046049436E-008 SQRT(A) (m 1/2): 5153.522949 Right Ascen at Week(rad): 0.2247382222E+001 Argument of Perigee(rad): -0.096974101 Mean Anom(rad): -0.3049311875E+001 Af0(s): 0.4072189331E-003 Af1(s/s): -0.3637978807E-011 week: 375 ******** Week 375 almanac for PRN-22 ******** ID: 22 Health: 000 Eccentricity: 0.1189756393E-001 Time of Applicability(s): 589824.0000 Orbital Inclination(rad): 0.9571165268 Rate of Right Ascen(r/s): -0.7943188009E-008 SQRT(A) (m 1/2): 5153.666504 Right Ascen at Week(rad): -0.8238690234E+000 Argument of Perigee(rad): -0.992753342 Mean Anom(rad): 0.1541394904E+001 Af0(s): 0.2002716064E-004 Af1(s/s): 0.7275957614E-011 week: 375 ******** Week 375 almanac for PRN-23 ******** ID: 23 Health: 000 Eccentricity: 0.6314754486E-002 Time of Applicability(s): 589824.0000 Orbital Inclination(rad): 0.9890125414 Rate of Right Ascen(r/s): -0.7760323249E-008 SQRT(A) (m 1/2): 5153.678223 Right Ascen at Week(rad): 0.2209288491E+001 Argument of Perigee(rad): -2.742920934 Mean Anom(rad): -0.2258205850E+001 Af0(s): 0.6608963013E-003 Af1(s/s): 0.3637978807E-011 week: 375 ******** Week 375 almanac for PRN-24 ******** ID: 24 Health: 000 Eccentricity: 0.1824522018E-001 Time of Applicability(s): 589824.0000 Orbital Inclination(rad): 0.9350415845 Rate of Right Ascen(r/s): -0.8011762293E-008 SQRT(A) (m 1/2): 5153.581055 Right Ascen at Week(rad): -0.2073345061E+001 Argument of Perigee(rad): 1.153508612 Mean Anom(rad): -0.8646120175E+000 Af0(s): 0.7152557373E-004 Af1(s/s): 0.1818989404E-010 week: 375 ******** Week 375 almanac for PRN-25 ******** ID: 25 Health: 000 Eccentricity: 0.1285743713E-001 Time of Applicability(s): 589824.0000 Orbital Inclination(rad): 0.9468999751 Rate of Right Ascen(r/s): -0.8046049436E-008 SQRT(A) (m 1/2): 5153.621582 Right Ascen at Week(rad): -0.9391112026E+000 Argument of Perigee(rad): 1.160576683 Mean Anom(rad): -0.2678826677E+001 Af0(s): 0.4129409790E-003 Af1(s/s): -0.3637978807E-011 week: 375 ******** Week 375 almanac for PRN-26 ******** ID: 26 Health: 000 Eccentricity: 0.1112270355E-001 Time of Applicability(s): 589824.0000 Orbital Inclination(rad): 0.9276113651 Rate of Right Ascen(r/s): -0.8206056101E-008 SQRT(A) (m 1/2): 5153.713379 Right Ascen at Week(rad): -0.1015715866E+001 Argument of Perigee(rad): 0.716576130 Mean Anom(rad): 0.2748108980E+001 Af0(s): -0.3767013550E-003 Af1(s/s): -0.3637978807E-011 week: 375 ******** Week 375 almanac for PRN-27 ******** ID: 27 Health: 000 Eccentricity: 0.1432037354E-001 Time of Applicability(s): 589824.0000 Orbital Inclination(rad): 0.9515378701 Rate of Right Ascen(r/s): -0.8148910863E-008 SQRT(A) (m 1/2): 5153.615723 Right Ascen at Week(rad): 0.1149886380E+000 Argument of Perigee(rad): 0.900156105 Mean Anom(rad): 0.1053223494E+001 Af0(s): 0.9536743164E-006 Af1(s/s): 0.0000000000E+000 week: 375 ******** Week 375 almanac for PRN-28 ******** ID: 28 Health: 000 Eccentricity: 0.5064010620E-003 Time of Applicability(s): 589824.0000 Orbital Inclination(rad): 0.9618023587 Rate of Right Ascen(r/s): -0.7760323249E-008 SQRT(A) (m 1/2): 5153.557617 Right Ascen at Week(rad): -0.1987351132E+001 Argument of Perigee(rad): -0.397300275 Mean Anom(rad): -0.1093026850E+001 Af0(s): -0.4949569702E-003 Af1(s/s): 0.1091393642E-010 week: 375 ******** Week 375 almanac for PRN-29 ******** ID: 29 Health: 000 Eccentricity: 0.3646850586E-002 Time of Applicability(s): 589824.0000 Orbital Inclination(rad): 0.9607537391 Rate of Right Ascen(r/s): -0.8011762293E-008 SQRT(A) (m 1/2): 5153.646973 Right Ascen at Week(rad): 0.2053676701E+000 Argument of Perigee(rad): 2.834073697 Mean Anom(rad): 0.7937230801E+000 Af0(s): -0.2975463867E-003 Af1(s/s): 0.7275957614E-011 week: 375 ******** Week 375 almanac for PRN-30 ******** ID: 30 Health: 000 Eccentricity: 0.8236885071E-002 Time of Applicability(s): 589824.0000 Orbital Inclination(rad): 0.9361740938 Rate of Right Ascen(r/s): -0.8011762293E-008 SQRT(A) (m 1/2): 5153.645996 Right Ascen at Week(rad): -0.1973479766E+001 Argument of Perigee(rad): -2.262446767 Mean Anom(rad): -0.2123720750E+001 Af0(s): 0.2670288086E-003 Af1(s/s): 0.1455191523E-010 week: 375 ******** Week 375 almanac for PRN-31 ******** ID: 31 Health: 000 Eccentricity: 0.1084566116E-001 Time of Applicability(s): 589824.0000 Orbital Inclination(rad): 0.9545818632 Rate of Right Ascen(r/s): -0.7806039439E-008 SQRT(A) (m 1/2): 5153.570801 Right Ascen at Week(rad): -0.1938151769E+001 Argument of Perigee(rad): 0.963073660 Mean Anom(rad): -0.2918973692E+001 Af0(s): -0.1411437988E-003 Af1(s/s): 0.3637978807E-011 week: 375 ******** Week 375 almanac for PRN-32 ******** ID: 32 Health: 000 Eccentricity: 0.9379863739E-002 Time of Applicability(s): 589824.0000 Orbital Inclination(rad): 0.9694482942 Rate of Right Ascen(r/s): -0.7988904198E-008 SQRT(A) (m 1/2): 5153.725586 Right Ascen at Week(rad): -0.3017906839E+001 Argument of Perigee(rad): -1.976963056 Mean Anom(rad): 0.1557652628E+001 Af0(s): 0.1211166382E-003 Af1(s/s): 0.2182787284E-010 week: 375